NOAA 16 DEB, 41250

Orbit data source: Space-Track

NOAA 16 DEB, 41250 is space debris in SSO originally from a launch on Thu, 21 Sep 2000 UTC launched from the Air Force Western Test Range (AFWTR). Debris objects in space refer to the collection of defunct objects orbiting the Earth. Examples of debris include non-operational satellites, rocket bodies, and fragments generated from explosions, collisions, or faulty payload assembly.

Loading next visibility...
Identifier
41250, 2000-055FA
Orbit
SSO
Country
Flag of USUS
Related business
Manufacturer
Unknown
Mission
Spacecraft
Bus & Motor
Unknown
Mass
Unknown
Launch date (UTC)
2000-09-21 (25 years ago)
Launch vehicle
Unknown
Launch site
Air Force Western Test Range (AFWTR)
Object type
Payload
Rocket body
Debris
Shape & HBR
Unknown shape, 0.1 m
Radar Cross Section
Small (<0.1 m²)

Expand to show TLE details & history
Last TLE update: 1 day ago

TLE from 1 day ago
0 NOAA 16 DEB
1 41250U 00055FA  25292.35298809  .00183487  00000-0  19980-1 0  9995
2 41250  98.9945 124.0694 0010481 130.1307 230.0825 14.86925959509948
Epoch: 2025-10-19T08:28Z
TLE epoch observation values (Epoch: 2025-10-19T08:28:18.170Z)
Latitude
-0.00007°
Longitude
-31.07717°
Altitude
615.247 km
Speed
7.549 km/s
True Right ascension
08h 16m 16s
True Declination
0° 00' 00"
Sunlit
Object was in daylight at epoch
Visualization orbit readout
Latitude
Unknown
Longitude
Unknown
Altitude
Unknown
Speed
Unknown
Apparent Right ascension
Unknown
Apparent Declination
Unknown
Sunlit
N/A
Visualization observer readout
Local Sidereal Time
15:02:31
Azimuth
Unknown
Elevation
Unknown
Doppler factor
Unknown
Orbital elements
Apogee altitude
611.95 km
Perigee altitude
597.313 km
Semi-major axis
6,982.768 km
Eccentricity
0.00105
Inclination
98.9945°
RAAN
124.0694°
Arg. of periapsis
130.1307°
True anomaly
229.99046°
Mean anomaly
230.0825°
Eccentric anomaly
230.03647°
Mean motion
3.71965 °/min
Orbital period
96.78 mins
BSTAR
0.01998
Loading maneuver chart data...
Computing Atmospheric mass density...

Documentation

Showing up to 5 results
|